Date String (YYYY-MM-DD hh:mm:ss) UTC,Instrument flags,absolute air pressure of the measurement (hPa),sample flow rate (lpm),inlet stack bypass flow (lpm),air temperature of the measurement (°C),ambient temperature measured by the external sensor (°C),aerosol sample conditioner tube jacket temperature (°C),OPC LED temperature (°C),internal box temperature (°C),relative humidity of the measurement (%),span deviation,mass concentration of particles derived from Lorenz-Mie calculation of OPC scattering (μg/m³),mass concentration of particles derived from Lorenz-Mie calculation of OPC scattering (μg/m³),mass concentration of particles derived from Lorenz-Mie calculation of OPC scattering (μg/m³)
DateTimeUTC,F1_M11,P_M11,Q1_M11,Q2_M11,T1_M11,T2_M11,T3_M11,T4_M11,T5_M11,U1_M11,ZSPAN_M11,X2_M11,X0_M11,X1_M11
2024-03-05 16:00:00,SystemResetWarning,0829.4,5.00,000.00,018.6,018.0,000.0,027.1,020.1,12.8,0000.0,0001.40,0004.16,0000.73
2024-03-05 16:01:00,SystemResetWarning,0829.4,5.00,000.00,018.6,017.9,000.0,027.0,020.0,12.8,0000.0,0001.48,0005.16,0000.75
2024-03-05 16:02:00,SystemResetWarning,0829.4,4.99,000.00,018.5,017.8,000.0,027.1,020.0,12.6,0000.0,0001.49,0006.31,0000.77
2024-03-05 16:03:00,SystemResetWarning,0829.4,4.99,000.00,018.5,017.7,000.0,027.1,020.0,12.7,0000.0,0001.45,0006.16,0000.79
2024-03-05 16:04:00,SystemResetWarning,0829.4,5.00,000.00,018.4,017.6,000.0,027.1,020.0,12.7,0000.0,0001.52,0007.11,0000.79
2024-03-05 16:05:00,SystemResetWarning,0829.3,5.00,000.00,018.4,017.5,000.0,027.1,020.0,12.9,0000.0,0001.53,0007.03,0000.79
2024-03-05 16:06:00,SystemResetWarning,0829.4,5.01,000.00,018.4,017.5,000.0,027.1,020.0,13.2,0000.0,0001.57,0007.50,0000.80
2024-03-05 16:07:00,SystemResetWarning,0829.3,5.00,000.00,018.3,017.4,000.0,027.1,020.0,13.1,0000.0,0001.56,0007.45,0000.80
2024-03-05 16:08:00,SystemResetWarning,0829.4,5.00,000.00,018.3,017.4,000.0,027.1,020.0,12.9,0000.0,0001.52,0007.40,0000.82
2024-03-05 16:09:00,SystemResetWarning,0829.4,5.00,000.00,018.3,017.7,000.0,027.1,020.2,13.1,0000.0,0001.49,0007.35,0000.83
2024-03-05 16:10:00,SystemResetWarning,0829.4,5.01,000.00,018.6,018.8,000.0,027.2,020.9,12.8,0000.0,0001.54,0007.35,0000.85
2024-03-05 16:11:00,SystemResetWarning,0829.3,4.99,000.00,018.9,019.4,000.0,027.2,021.2,12.4,0000.0,0001.61,0007.80,0000.87
2024-03-05 16:12:00,SystemResetWarning,0829.3,4.99,000.00,018.9,019.1,000.0,027.2,020.9,12.3,0000.0,0001.61,0007.45,0000.87
2024-03-05 16:13:00,SystemResetWarning,0829.3,5.00,000.00,018.8,018.7,000.0,027.1,020.6,12.4,0000.0,0001.58,0006.37,0000.87
2024-03-05 16:14:00,SystemResetWarning,0829.3,5.01,000.00,018.8,018.4,000.0,027.1,020.3,12.5,0000.0,0001.63,0007.32,0000.88
2024-03-05 16:15:00,SystemResetWarning,0829.3,5.00,000.00,018.7,018.2,000.0,027.1,020.1,12.6,0000.0,0001.67,0007.66,0000.91
2024-03-05 16:16:00,SystemResetWarning,0829.4,5.00,000.00,018.6,018.0,000.0,027.1,020.0,12.7,0000.0,0001.68,0007.69,0000.94
2024-03-05 16:17:00,SystemResetWarning,0829.3,5.00,000.00,018.5,017.8,000.0,027.1,020.0,12.7,0000.0,0001.70,0007.83,0000.96
2024-03-05 16:18:00,SystemResetWarning,0829.3,5.00,000.00,018.5,017.7,000.0,027.1,020.0,12.8,0000.0,0001.72,0007.80,0000.98
2024-03-05 16:19:00,SystemResetWarning,0829.3,5.00,000.00,018.4,017.6,000.0,027.1,020.0,12.7,0000.0,0001.77,0007.90,0000.99
2024-03-05 16:20:00,SystemResetWarning,0829.4,5.00,000.00,018.4,017.5,000.0,027.2,020.0,12.8,0000.0,0001.80,0007.98,0000.99
2024-03-05 16:21:00,SystemResetWarning,0829.3,5.00,000.00,018.4,017.5,000.0,027.2,020.0,13.0,0000.0,0001.77,0008.01,0000.99
2024-03-05 16:22:00,SystemResetWarning,0829.2,5.00,000.00,018.4,017.4,000.0,027.2,020.0,12.9,0000.0,0001.75,0008.22,0001.00
2024-03-05 16:23:00,SystemResetWarning,0829.2,5.01,000.00,018.4,017.5,000.0,027.2,020.1,12.9,0000.0,0001.76,0008.45,0001.01
2024-03-05 16:24:00,SystemResetWarning,0829.3,5.02,000.00,018.5,018.4,000.0,027.2,020.6,12.8,0000.0,0001.80,0008.52,0001.03
2024-03-05 16:25:00,SystemResetWarning,0829.4,4.99,000.00,018.8,019.3,000.0,027.3,021.2,12.5,0000.0,0001.83,0008.25,0001.04
2024-03-05 16:26:00,SystemResetWarning,0829.4,4.98,000.00,019.0,019.3,000.0,027.2,021.1,12.5,0000.0,0001.85,0007.94,0001.03
2024-03-05 16:27:00,SystemResetWarning,0829.3,5.01,000.00,018.9,019.0,000.0,027.2,020.8,12.4,0000.0,0001.91,0007.76,0001.05
2024-03-05 16:28:00,SystemResetWarning,0829.3,5.01,000.00,018.9,018.8,000.0,027.2,020.6,12.4,0000.0,0001.91,0007.91,0001.06
2024-03-05 16:29:00,SystemResetWarning,0829.3,4.98,000.00,018.8,018.5,000.0,027.1,020.4,12.5,0000.0,0001.98,0009.43,0001.08
2024-03-05 16:30:00,SystemResetWarning,0829.2,4.99,000.00,018.8,018.3,000.0,027.1,020.3,12.5,0000.0,0002.02,0009.60,0001.10
2024-03-05 16:31:00,SystemResetWarning,0829.3,5.01,000.00,018.7,018.1,000.0,027.1,020.2,12.5,0000.0,0002.03,0009.59,0001.12
2024-03-05 16:32:00,SystemResetWarning,0829.3,5.01,000.00,018.6,017.9,000.0,027.1,020.1,12.5,0000.0,0002.12,0009.96,0001.13
2024-03-05 16:33:00,SystemResetWarning,0829.3,5.00,000.00,018.6,017.8,000.0,027.1,020.0,12.5,0000.0,0002.12,0009.65,0001.15
2024-03-05 16:34:00,SystemResetWarning,0829.3,4.99,000.00,018.5,017.7,000.0,027.1,020.0,12.8,0000.0,0002.10,0009.86,0001.17
2024-03-05 16:35:00,SystemResetWarning,0829.2,5.00,000.00,018.5,017.6,000.0,027.1,020.0,12.7,0000.0,0002.11,0010.29,0001.20
2024-03-05 16:36:00,SystemResetWarning,0829.2,5.01,000.00,018.4,017.5,000.0,027.1,020.0,12.8,0000.0,0002.09,0010.56,0001.21
2024-03-05 16:37:00,SystemResetWarning,0829.3,5.00,000.00,018.4,017.5,000.0,027.1,020.0,12.7,0000.0,0002.04,0010.27,0001.23
2024-03-05 16:38:00,SystemResetWarning,0829.3,5.01,000.00,018.4,017.4,000.0,027.2,020.0,12.5,0000.0,0001.98,0010.12,0001.24
2024-03-05 16:39:00,SystemResetWarning,0829.3,5.00,000.00,018.4,017.4,000.0,027.1,020.0,12.7,0000.0,0001.96,0009.47,0001.26
2024-03-05 16:40:00,SystemResetWarning,0829.3,5.00,000.00,018.3,017.4,000.0,027.1,020.0,12.7,0000.0,0001.94,0007.98,0001.28
2024-03-05 16:41:00,SystemResetWarning,0829.3,5.00,000.00,018.3,017.4,000.0,027.1,020.0,12.8,0000.0,0001.98,0007.92,0001.30
2024-03-05 16:42:00,SystemResetWarning,0829.3,4.99,000.00,018.3,017.3,000.0,027.1,020.0,12.8,0000.0,0002.03,0008.52,0001.32
2024-03-05 16:43:00,SystemResetWarning,0829.3,5.00,000.00,018.3,017.3,000.0,027.1,020.0,12.7,0000.0,0002.05,0009.51,0001.32
2024-03-05 16:44:00,SystemResetWarning,0829.2,5.00,000.00,018.3,017.3,000.0,027.1,020.0,12.9,0000.0,0002.12,0009.67,0001.34
2024-03-05 16:45:00,SystemResetWarning,0829.2,5.01,000.00,018.4,017.9,000.0,027.2,020.4,12.8,0000.0,0002.19,0009.41,0001.35
2024-03-05 16:46:00,SystemResetWarning,0829.3,4.99,000.00,018.7,019.0,000.0,027.2,021.0,12.4,0000.0,0002.25,0009.38,0001.35
2024-03-05 16:47:00,SystemResetWarning,0829.3,4.99,000.00,018.9,019.4,000.0,027.2,021.2,12.4,0000.0,0002.21,0008.60,0001.36
2024-03-05 16:48:00,SystemResetWarning,0829.2,5.01,000.00,018.9,019.2,000.0,027.2,020.9,12.3,0000.0,0002.25,0008.69,0001.36
2024-03-05 16:49:00,SystemResetWarning,0829.3,5.00,000.00,018.9,018.9,000.0,027.1,020.7,12.2,0000.0,0002.28,0008.87,0001.37
2024-03-05 16:50:00,SystemResetWarning,0829.2,5.00,000.00,018.8,018.6,000.0,027.1,020.5,12.3,0000.0,0002.28,0009.14,0001.36
2024-03-05 16:51:00,SystemResetWarning,0829.3,5.00,000.00,018.8,018.4,000.0,027.1,020.3,12.4,0000.0,0002.34,0009.52,0001.36
2024-03-05 16:52:00,SystemResetWarning,0829.3,5.01,000.00,018.7,018.2,000.0,027.1,020.2,12.4,0000.0,0002.36,0010.15,0001.36
2024-03-05 16:53:00,SystemResetWarning,0829.3,5.01,000.00,018.6,018.1,000.0,027.1,020.1,12.6,0000.0,0002.34,0010.89,0001.36
2024-03-05 16:54:00,SystemResetWarning,0829.2,5.00,000.00,018.6,018.0,000.0,027.0,020.0,12.5,0000.0,0002.34,0010.16,0001.37
2024-03-05 16:55:00,SystemResetWarning,0829.2,4.99,000.00,018.5,017.8,000.0,027.0,020.0,12.6,0000.0,0002.30,0010.25,0001.36
2024-03-05 16:56:00,SystemResetWarning,0829.2,5.00,000.00,018.5,017.7,000.0,027.1,020.0,12.7,0000.0,0002.36,0010.51,0001.36
2024-03-05 16:57:00,SystemResetWarning,0829.1,5.00,000.00,018.4,017.7,000.0,027.1,020.0,12.5,0000.0,0002.36,0010.87,0001.36
2024-03-05 16:58:00,SystemResetWarning,0829.1,5.01,000.00,018.4,017.6,000.0,027.1,020.0,12.6,0000.0,0002.47,0011.90,0001.37
2024-03-05 16:59:00,SystemResetWarning,0829.2,5.00,000.00,018.4,017.6,000.0,027.0,020.0,12.9,0000.0,0002.55,0011.93,0001.39
